Time,TemperatureF,DewpointF,PressureIn,WindDirection,WindDirectionDegrees,WindSpeedMPH,WindSpeedGustMPH,Humidity,HourlyPrecipIn,Conditions,Clouds,dailyrainin,SoftwareType,DateUTC
2013-02-25 00:02:00,36.0,26.0,29.92,ENE,62,3.0,7.0,67,0.00,,,0.00,,2013-02-25 06:02:00,
2013-02-25 00:11:00,36.0,26.0,29.92,ENE,62,3.0,7.0,67,0.00,,,0.00,,2013-02-25 06:11:00,
2013-02-25 00:21:00,35.0,25.0,29.92,ENE,62,1.0,7.0,67,0.00,,,0.00,,2013-02-25 06:21:00,
2013-02-25 00:31:00,33.0,25.0,29.93,ENE,64,1.0,5.0,72,0.00,,,0.00,,2013-02-25 06:31:00,
2013-02-25 00:42:00,33.0,25.0,29.93,ENE,64,1.0,5.0,72,0.00,,,0.00,,2013-02-25 06:42:00,
2013-02-25 00:51:00,33.0,26.0,29.93,ENE,62,2.0,5.0,74,0.00,,,0.00,,2013-02-25 06:51:00,
2013-02-25 01:01:00,32.0,24.0,29.94,ENE,62,2.0,2.0,72,0.00,,,0.00,,2013-02-25 07:01:00,
2013-02-25 01:11:00,34.0,25.0,29.94,ENE,62,5.0,5.0,69,0.00,,,0.00,,2013-02-25 07:11:00,
2013-02-25 01:21:00,34.0,25.0,29.94,ENE,62,5.0,5.0,69,0.00,,,0.00,,2013-02-25 07:21:00,
2013-02-25 01:31:00,35.0,25.0,29.92,ENE,71,5.0,8.0,66,0.00,,,0.00,,2013-02-25 07:31:00,
2013-02-25 01:41:00,35.0,25.0,29.92,ENE,71,5.0,8.0,66,0.00,,,0.00,,2013-02-25 07:41:00,
2013-02-25 01:51:00,35.0,25.0,29.93,ENE,73,5.0,8.0,66,0.00,,,0.00,,2013-02-25 07:51:00,
2013-02-25 02:01:00,36.0,25.0,29.92,ENE,73,5.0,8.0,65,0.00,,,0.00,,2013-02-25 08:01:00,
2013-02-25 02:11:00,36.0,25.0,29.92,East,95,3.0,8.0,64,0.00,,,0.00,,2013-02-25 08:11:00,
2013-02-25 02:21:00,36.0,25.0,29.92,East,95,3.0,8.0,64,0.00,,,0.00,,2013-02-25 08:21:00,
2013-02-25 02:32:00,36.0,25.0,29.93,East,86,5.0,10.0,64,0.00,,,0.00,,2013-02-25 08:32:00,
2013-02-25 02:41:00,36.0,25.0,29.93,East,86,5.0,10.0,64,0.00,,,0.00,,2013-02-25 08:41:00,
2013-02-25 02:52:00,36.0,25.0,29.93,East,86,5.0,10.0,64,0.00,,,0.00,,2013-02-25 08:52:00,
2013-02-25 03:01:00,36.0,25.0,29.92,East,82,6.0,10.0,64,0.00,,,0.00,,2013-02-25 09:01:00,
2013-02-25 03:12:00,36.0,25.0,29.92,East,82,6.0,10.0,64,0.00,,,0.00,,2013-02-25 09:12:00,
2013-02-25 03:21:00,36.0,25.0,29.92,East,82,6.0,10.0,64,0.00,,,0.00,,2013-02-25 09:21:00,
2013-02-25 03:32:00,36.0,24.0,29.92,East,88,5.0,11.0,62,0.00,,,0.00,,2013-02-25 09:32:00,
2013-02-25 03:42:00,36.0,24.0,29.92,East,88,5.0,11.0,62,0.00,,,0.00,,2013-02-25 09:42:00,
2013-02-25 03:52:00,36.0,25.0,29.92,East,83,6.0,11.0,64,0.00,,,0.00,,2013-02-25 09:52:00,
2013-02-25 04:01:00,36.0,24.0,29.92,East,82,8.0,13.0,61,0.00,,,0.00,,2013-02-25 10:01:00,
2013-02-25 04:11:00,36.0,23.0,29.92,ENE,78,8.0,13.0,60,0.00,,,0.00,,2013-02-25 10:11:00,
2013-02-25 04:21:00,36.0,23.0,29.92,ENE,78,8.0,13.0,60,0.00,,,0.00,,2013-02-25 10:21:00,
2013-02-25 04:32:00,36.0,24.0,29.91,East,82,8.0,12.0,62,0.00,,,0.00,,2013-02-25 10:32:00,
2013-02-25 04:42:00,36.0,24.0,29.91,East,82,8.0,12.0,62,0.00,,,0.00,,2013-02-25 10:42:00,
2013-02-25 04:52:00,36.0,25.0,29.92,ENE,73,7.0,12.0,64,0.00,,,0.00,,2013-02-25 10:52:00,
2013-02-25 05:01:00,36.0,24.0,29.90,ENE,72,11.0,13.0,61,0.00,,,0.00,,2013-02-25 11:01:00,
2013-02-25 05:11:00,36.0,24.0,29.90,ENE,72,11.0,13.0,61,0.00,,,0.00,,2013-02-25 11:11:00,
2013-02-25 05:21:00,36.0,25.0,29.90,East,82,6.0,13.0,63,0.00,,,0.00,,2013-02-25 11:21:00,
2013-02-25 05:32:00,36.0,24.0,29.90,East,99,8.0,14.0,62,0.00,,,0.00,,2013-02-25 11:32:00,
2013-02-25 05:42:00,36.0,24.0,29.90,East,99,8.0,14.0,62,0.00,,,0.00,,2013-02-25 11:42:00,
2013-02-25 05:52:00,36.0,24.0,29.90,East,86,11.0,14.0,61,0.00,,,0.00,,2013-02-25 11:52:00,
2013-02-25 06:02:00,36.0,25.0,29.90,East,95,8.0,16.0,64,0.00,,,0.00,,2013-02-25 12:02:00,
2013-02-25 06:11:00,36.0,25.0,29.90,East,95,8.0,16.0,64,0.00,,,0.00,,2013-02-25 12:11:00,
2013-02-25 06:21:00,35.0,24.0,29.90,East,80,10.0,16.0,64,0.00,,,0.00,,2013-02-25 12:21:00,
2013-02-25 06:32:00,36.0,25.0,29.89,ENE,73,12.0,15.0,64,0.00,,,0.00,,2013-02-25 12:32:00,
2013-02-25 06:42:00,36.0,25.0,29.89,ENE,73,12.0,15.0,64,0.00,,,0.00,,2013-02-25 12:42:00,
2013-02-25 06:53:00,36.0,25.0,29.89,East,83,7.0,15.0,64,0.00,,,0.00,,2013-02-25 12:53:00,
2013-02-25 07:02:00,36.0,24.0,29.89,ENE,75,10.0,15.0,62,0.00,,,0.00,,2013-02-25 13:02:00,
2013-02-25 07:12:00,36.0,24.0,29.89,ENE,75,10.0,15.0,62,0.00,,,0.00,,2013-02-25 13:12:00,
2013-02-25 07:22:00,36.0,24.0,29.89,ENE,75,10.0,15.0,62,0.00,,,0.00,,2013-02-25 13:22:00,
2013-02-25 07:32:00,36.0,25.0,29.89,East,89,10.0,17.0,63,0.00,,,0.00,,2013-02-25 13:32:00,
2013-02-25 07:42:00,36.0,25.0,29.89,East,89,10.0,17.0,63,0.00,,,0.00,,2013-02-25 13:42:00,
2013-02-25 07:52:00,37.0,25.0,29.89,East,83,13.0,17.0,61,0.00,,,0.00,,2013-02-25 13:52:00,
2013-02-25 08:03:00,37.0,24.0,29.89,ESE,103,11.0,17.0,60,0.00,,,0.00,,2013-02-25 14:03:00,
2013-02-25 08:17:00,37.0,24.0,29.89,ESE,103,11.0,17.0,60,0.00,,,0.00,,2013-02-25 14:17:00,
2013-02-25 08:32:00,40.0,26.0,29.89,East,90,12.0,19.0,56,0.00,,,0.00,,2013-02-25 14:32:00,
2013-02-25 08:42:00,40.0,26.0,29.89,East,90,12.0,19.0,56,0.00,,,0.00,,2013-02-25 14:42:00,
2013-02-25 08:52:00,40.0,26.0,29.89,East,90,12.0,19.0,56,0.00,,,0.00,,2013-02-25 14:52:00,
2013-02-25 09:02:00,42.0,27.0,29.88,East,99,11.0,21.0,54,0.00,,,0.00,,2013-02-25 15:02:00,
2013-02-25 09:11:00,42.0,27.0,29.88,East,99,11.0,21.0,54,0.00,,,0.00,,2013-02-25 15:11:00,
2013-02-25 09:21:00,42.0,25.0,29.89,East,100,12.0,21.0,50,0.00,,,0.00,,2013-02-25 15:21:00,
2013-02-25 09:32:00,43.0,26.0,29.89,ESE,106,14.0,26.0,50,0.00,,,0.00,,2013-02-25 15:32:00,
2013-02-25 09:41:00,43.0,26.0,29.89,ESE,106,14.0,26.0,50,0.00,,,0.00,,2013-02-25 15:41:00,
2013-02-25 09:51:00,44.0,27.0,29.88,East,89,18.0,26.0,51,0.00,,,0.00,,2013-02-25 15:51:00,
2013-02-25 10:02:00,44.0,27.0,29.88,East,89,18.0,26.0,51,0.00,,,0.00,,2013-02-25 16:02:00,
2013-02-25 10:11:00,44.0,27.0,29.88,East,89,18.0,26.0,51,0.00,,,0.00,,2013-02-25 16:11:00,
2013-02-25 10:21:00,44.0,24.0,29.86,East,96,17.0,25.0,45,0.00,,,0.00,,2013-02-25 16:21:00,
2013-02-25 10:32:00,47.0,26.0,29.85,ESE,103,12.0,26.0,44,0.00,,,0.00,,2013-02-25 16:32:00,
2013-02-25 10:42:00,47.0,26.0,29.85,ESE,103,12.0,26.0,44,0.00,,,0.00,,2013-02-25 16:42:00,
2013-02-25 10:51:00,48.0,27.0,29.85,East,83,16.0,26.0,43,0.00,,,0.00,,2013-02-25 16:51:00,
2013-02-25 11:01:00,49.0,27.0,29.85,East,79,14.0,25.0,42,0.00,,,0.00,,2013-02-25 17:01:00,
2013-02-25 11:11:00,49.0,27.0,29.85,East,79,14.0,25.0,42,0.00,,,0.00,,2013-02-25 17:11:00,
2013-02-25 11:21:00,49.0,27.0,29.85,ESE,109,15.0,25.0,42,0.00,,,0.00,,2013-02-25 17:21:00,
2013-02-25 11:32:00,50.0,26.0,29.84,East,93,12.0,22.0,39,0.00,,,0.00,,2013-02-25 17:32:00,
2013-02-25 11:41:00,50.0,26.0,29.84,East,93,12.0,22.0,39,0.00,,,0.00,,2013-02-25 17:41:00,
2013-02-25 11:52:00,51.0,24.0,29.83,East,99,11.0,22.0,35,0.00,,,0.00,,2013-02-25 17:52:00,
2013-02-25 12:01:00,52.0,25.0,29.82,East,95,14.0,20.0,35,0.00,,,0.00,,2013-02-25 18:01:00,
2013-02-25 12:12:00,52.0,25.0,29.82,East,95,14.0,20.0,35,0.00,,,0.00,,2013-02-25 18:12:00,
2013-02-25 12:21:00,52.0,25.0,29.82,East,95,14.0,20.0,35,0.00,,,0.00,,2013-02-25 18:21:00,
2013-02-25 12:32:00,53.0,25.0,29.79,ESE,107,11.0,20.0,34,0.00,,,0.00,,2013-02-25 18:32:00,
2013-02-25 12:42:00,53.0,25.0,29.79,ESE,107,11.0,20.0,34,0.00,,,0.00,,2013-02-25 18:42:00,
2013-02-25 12:52:00,54.0,27.0,29.78,SE,124,14.0,20.0,35,0.00,,,0.00,,2013-02-25 18:52:00,
2013-02-25 13:01:00,54.0,26.0,29.76,SE,130,11.0,20.0,34,0.00,,,0.00,,2013-02-25 19:01:00,
2013-02-25 13:11:00,54.0,26.0,29.76,SE,130,11.0,20.0,34,0.00,,,0.00,,2013-02-25 19:11:00,
2013-02-25 13:21:00,54.0,26.0,29.75,ESE,102,11.0,20.0,34,0.00,,,0.00,,2013-02-25 19:21:00,
2013-02-25 13:31:00,53.0,25.0,29.74,ESE,109,15.0,19.0,34,0.00,,,0.00,,2013-02-25 19:31:00,
2013-02-25 13:42:00,53.0,25.0,29.74,ESE,109,15.0,19.0,34,0.00,,,0.00,,2013-02-25 19:42:00,
2013-02-25 13:52:00,56.0,29.0,29.73,ESE,114,16.0,19.0,35,0.00,,,0.00,,2013-02-25 19:52:00,
2013-02-25 14:01:00,54.0,29.0,29.72,ESE,109,12.0,19.0,38,0.00,,,0.00,,2013-02-25 20:01:00,
2013-02-25 14:11:00,54.0,29.0,29.72,ESE,109,12.0,19.0,38,0.00,,,0.00,,2013-02-25 20:11:00,
2013-02-25 14:21:00,54.0,28.0,29.72,ESE,103,12.0,21.0,36,0.00,,,0.00,,2013-02-25 20:21:00,
2013-02-25 14:32:00,55.0,27.0,29.70,ESE,102,13.0,19.0,34,0.00,,,0.00,,2013-02-25 20:32:00,
2013-02-25 14:42:00,55.0,27.0,29.70,ESE,102,13.0,19.0,34,0.00,,,0.00,,2013-02-25 20:42:00,
2013-02-25 14:52:00,55.0,29.0,29.70,ESE,107,13.0,19.0,36,0.00,,,0.00,,2013-02-25 20:52:00,
2013-02-25 15:01:00,55.0,29.0,29.68,East,95,7.0,19.0,36,0.00,,,0.00,,2013-02-25 21:01:00,
2013-02-25 15:11:00,55.0,29.0,29.68,East,95,7.0,19.0,36,0.00,,,0.00,,2013-02-25 21:11:00,
2013-02-25 15:21:00,55.0,31.0,29.68,East,90,10.0,19.0,40,0.00,,,0.00,,2013-02-25 21:21:00,
2013-02-25 15:32:00,55.0,29.0,29.67,East,86,10.0,20.0,37,0.00,,,0.00,,2013-02-25 21:32:00,
2013-02-25 15:42:00,55.0,29.0,29.67,East,86,10.0,20.0,37,0.00,,,0.00,,2013-02-25 21:42:00,
2013-02-25 15:51:00,54.0,28.0,29.66,East,83,12.0,20.0,37,0.00,,,0.00,,2013-02-25 21:51:00,
2013-02-25 16:01:00,54.0,28.0,29.66,East,92,7.0,21.0,37,0.00,,,0.00,,2013-02-25 22:01:00,
2013-02-25 16:11:00,54.0,28.0,29.66,East,92,7.0,21.0,37,0.00,,,0.00,,2013-02-25 22:11:00,
2013-02-25 16:21:00,54.0,30.0,29.65,East,88,12.0,21.0,39,0.00,,,0.00,,2013-02-25 22:21:00,
2013-02-25 16:32:00,54.0,30.0,29.64,East,79,10.0,19.0,39,0.00,,,0.00,,2013-02-25 22:32:00,
2013-02-25 16:42:00,54.0,30.0,29.64,East,79,10.0,19.0,39,0.00,,,0.00,,2013-02-25 22:42:00,
2013-02-25 16:51:00,53.0,29.0,29.62,ENE,71,11.0,19.0,40,0.00,,,0.00,,2013-02-25 22:51:00,
2013-02-25 17:01:00,53.0,29.0,29.60,East,85,15.0,21.0,40,0.00,,,0.00,,2013-02-25 23:01:00,
2013-02-25 17:11:00,53.0,29.0,29.60,East,85,15.0,21.0,40,0.00,,,0.00,,2013-02-25 23:11:00,
2013-02-25 17:22:00,53.0,30.0,29.58,East,93,12.0,21.0,41,0.00,,,0.00,,2013-02-25 23:22:00,
2013-02-25 17:31:00,53.0,31.0,29.59,East,82,13.0,24.0,42,0.00,,,0.00,,2013-02-25 23:31:00,
2013-02-25 17:42:00,53.0,31.0,29.59,East,82,13.0,24.0,42,0.00,,,0.00,,2013-02-25 23:42:00,
2013-02-25 17:52:00,53.0,31.0,29.59,East,97,8.0,24.0,42,0.00,,,0.00,,2013-02-25 23:52:00,
2013-02-25 18:01:00,53.0,31.0,29.58,East,95,13.0,26.0,43,0.00,,,0.00,,2013-02-26 00:01:00,
2013-02-25 18:12:00,53.0,31.0,29.58,East,95,13.0,26.0,43,0.00,,,0.00,,2013-02-26 00:12:00,
2013-02-25 18:21:00,53.0,31.0,29.57,East,92,14.0,26.0,42,0.00,,,0.00,,2013-02-26 00:21:00,
2013-02-25 18:32:00,53.0,31.0,29.57,East,92,12.0,24.0,42,0.00,,,0.00,,2013-02-26 00:32:00,
2013-02-25 18:42:00,53.0,31.0,29.57,East,92,12.0,24.0,42,0.00,,,0.00,,2013-02-26 00:42:00,
2013-02-25 18:51:00,53.0,30.0,29.58,ESE,113,12.0,24.0,41,0.00,,,0.00,,2013-02-26 00:51:00,
2013-02-25 19:02:00,53.0,31.0,29.59,East,90,7.0,18.0,43,0.00,,,0.00,,2013-02-26 01:02:00,
2013-02-25 19:11:00,53.0,31.0,29.59,East,90,7.0,18.0,43,0.00,,,0.00,,2013-02-26 01:11:00,
2013-02-25 19:21:00,53.0,31.0,29.59,East,89,13.0,18.0,43,0.00,,,0.00,,2013-02-26 01:21:00,
2013-02-25 19:31:00,52.0,30.0,29.58,East,96,12.0,21.0,43,0.00,,,0.00,,2013-02-26 01:31:00,
2013-02-25 19:42:00,52.0,30.0,29.58,East,96,12.0,21.0,43,0.00,,,0.00,,2013-02-26 01:42:00,
2013-02-25 19:51:00,52.0,30.0,29.58,East,100,13.0,21.0,43,0.00,,,0.00,,2013-02-26 01:51:00,
2013-02-25 20:01:00,52.0,31.0,29.56,East,90,12.0,22.0,45,0.00,,,0.00,,2013-02-26 02:01:00,
2013-02-25 20:11:00,52.0,31.0,29.56,East,90,12.0,22.0,45,0.00,,,0.00,,2013-02-26 02:11:00,
2013-02-25 20:21:00,52.0,33.0,29.54,East,86,18.0,22.0,48,0.00,,,0.00,,2013-02-26 02:21:00,
2013-02-25 20:32:00,52.0,32.0,29.52,East,89,14.0,25.0,46,0.00,,,0.00,,2013-02-26 02:32:00,
2013-02-25 20:42:00,52.0,32.0,29.52,East,89,14.0,25.0,46,0.00,,,0.00,,2013-02-26 02:42:00,
2013-02-25 20:52:00,52.0,34.0,29.50,ESE,110,13.0,25.0,51,0.00,,,0.00,,2013-02-26 02:52:00,
2013-02-25 21:02:00,52.0,35.0,29.49,ESE,104,12.0,22.0,53,0.00,,,0.00,,2013-02-26 03:02:00,
2013-02-25 21:11:00,52.0,35.0,29.49,ESE,104,12.0,22.0,53,0.00,,,0.00,,2013-02-26 03:11:00,
2013-02-25 21:21:00,52.0,34.0,29.48,East,95,9.0,22.0,51,0.00,,,0.00,,2013-02-26 03:21:00,
2013-02-25 21:32:00,52.0,36.0,29.49,ESE,123,8.0,18.0,54,0.00,,,0.00,,2013-02-26 03:32:00,
2013-02-25 21:42:00,52.0,36.0,29.49,ESE,123,8.0,18.0,54,0.00,,,0.00,,2013-02-26 03:42:00,
2013-02-25 21:52:00,52.0,36.0,29.49,ESE,123,8.0,18.0,54,0.00,,,0.00,,2013-02-26 03:52:00,
2013-02-25 22:01:00,52.0,36.0,29.47,East,97,11.0,18.0,55,0.00,,,0.00,,2013-02-26 04:01:00,
2013-02-25 22:11:00,52.0,36.0,29.47,East,97,11.0,18.0,55,0.00,,,0.00,,2013-02-26 04:11:00,
2013-02-25 22:21:00,52.0,36.0,29.47,East,97,11.0,18.0,55,0.00,,,0.00,,2013-02-26 04:21:00,
2013-02-25 22:32:00,52.0,36.0,29.47,East,97,11.0,18.0,55,0.00,,,0.00,,2013-02-26 04:32:00,
2013-02-25 22:52:00,54.0,42.0,29.41,SE,127,13.0,19.0,64,0.00,,,0.00,,2013-02-26 04:52:00,
2013-02-25 23:01:00,54.0,42.0,29.41,SE,136,7.0,28.0,64,0.00,,,0.00,,2013-02-26 05:01:00,
2013-02-25 23:12:00,52.0,43.0,29.40,SE,134,11.0,28.0,71,0.00,,,0.00,,2013-02-26 05:12:00,
2013-02-25 23:21:00,52.0,43.0,29.40,SE,134,11.0,28.0,71,0.00,,,0.00,,2013-02-26 05:21:00,
2013-02-25 23:31:00,50.0,45.0,29.41,ESE,103,12.0,30.0,82,0.01,,,0.01,,2013-02-26 05:31:00,
2013-02-25 23:43:00,50.0,45.0,29.41,ESE,103,12.0,30.0,82,0.01,,,0.01,,2013-02-26 05:43:00,
2013-02-25 23:52:00,49.0,45.0,29.41,SE,130,7.0,30.0,87,0.01,,,0.01,,2013-02-26 05:52:00,